Hourly Data Report for November 21, 2020

L'ASSOMPTION
QUEBEC
Current Station Operator: ECCC - MSC

45°48'34.000" N
73°26'05.000" W
21.00 m
7014160
71524
WEW

Download Data

Hourly Data (November 2020)
Hourly Data Report for November 21, 2020
TIME
LST
Temp Definition
°C
Dew Point Definition
°C
Rel Hum Definition
%
Precip. Amount Definition
mm

Wind Dir Definition
10's deg

Wind Spd Definition
km/h
Visibility Definition
km
Stn Press Definition
kPa
Hmdx Definition


Wind Chill Definition


Weather Definition


00:00 9.5 4.1 69 0.0 24 22   101.56     LegendNANA
01:00 8.6 3.8 72 0.0 25 17   101.59     LegendNANA
02:00 8.3 3.4 71 0.0 25 18   101.74     LegendNANA
03:00 7.2 0.0 60 0.0 28 14   101.88     LegendNANA
04:00 5.3 -0.7 65 0.0 27 7   101.97     LegendNANA
05:00 5.1 -1.1 64 0.0 29 6   102.14     LegendNANA
06:00 5.4 -2.0 59 0.0 28 8   102.25     LegendNANA
07:00 4.6 -1.8 63 0.0 29 6   102.37     LegendNANA
08:00 4.6 -1.6 64 0.0 31 16   102.47     LegendNANA
09:00 5.2 -4.0 51 0.0 30 21   102.55     LegendNANA
10:00 5.0 -4.9 49 0.0 30 20   102.63     LegendNANA
11:00 5.0 -5.0 48 0.0 30 18   102.67     LegendNANA
12:00 5.0 -4.9 49 0.0 32 16   102.66     LegendNANA
13:00 4.7 -6.0 46 0.0 31 15   102.69     LegendNANA
14:00 3.9 -7.5 43 0.0 33 14   102.74     LegendNANA
15:00 4.0 -8.0 41 0.0 34 12   102.79     LegendNANA
16:00 2.7 -7.6 47 0.0 34 7   102.87     LegendNANA
17:00 1.8 -7.7 49 0.0 35 7   102.96     LegendNANA
18:00 0.4 -7.6 55 0.0 1 7   103.08     LegendNANA
19:00 -0.5 -7.6 58 0.0 1 6   103.14   -3 LegendNANA
20:00 -1.8 -7.8 63 0.0 36 3   103.18   -3 LegendNANA
21:00 -3.5 -6.4 80 0.0 32 2   103.24   -4 LegendNANA
22:00 -3.9 -6.6 81 0.0 31 3   103.24   -5 LegendNANA
23:00 -4.6 -6.8 84 0.0 31 5   103.27   -7 LegendNANA

Notes on Data Quality.

Legend

  • E = Estimated
  • M = Missing
  • NA = Not Available*
  • [empty] = Indicates an unobserved value
Date modified: